Centralia, IL

12:58 PM CST on February 21, 2018 (GMT -0600)
Centralia Municipal

Weather History for KENL - April, 2013

Change the Weather History Date:

Tuesday, April 9, 2013

  Actual Average (KSLO) Record (KSLO)
Temperature  
Mean Temperature 74 °F -  
Max Temperature 81 °F 62 °F 84 °F (1967)
Min Temperature 66 °F 40 °F 26 °F (1974)
Cooling Degree Days 8    
Growing Degree Days 24 (Base 50)    
Moisture  
Dew Point 61 °F    
Average Humidity 66    
Maximum Humidity 77    
Minimum Humidity 51    
Precipitation  
Precipitation 0.00 in - - ()
Sea Level Pressure  
Sea Level Pressure 29.90 in    
Wind  
Wind Speed 12 mph (SSE)    
Max Wind Speed 25 mph    
Max Gust Speed 33 mph    
Visibility 10 miles    
Events      
Averages and records for this station are not official NWS values.
T = Trace of Precipitation, MM = Missing Value Source: NWS Daily Summary

Daily Weather History Graph

Daily Weather History Graph

Search for Another Location

Airport or City:

Trip Planner

Search our weather history database for the weather conditions in past years. The results will help you decide how hot, cold, wet, or windy it might be!

Date:

Astronomy

Apr. 09, 2013 Rise Set
Actual Time 6:28 AM CDT 7:27 PM CDT
Civil Twilight 6:01 AM CDT 7:54 PM CDT
Nautical Twilight 5:29 AM CDT 8:26 PM CDT
Astronomical Twilight 4:56 AM CDT 9:00 PM CDT
Moon 5:51 AM CDT (4/9) 7:03 PM CDT (4/9)
Length of Visible Light 13h 52m
Length of Day
12h 58m
Waning Crescent, 1% of the Moon is Illuminated
Apr 9
Waning Crescent
Apr 10
New
Apr 18
First Quarter
Apr 25
Full
May 2
Last Quarter

Hourly Weather History & Observations

Time (CDT) Temp. Heat Index Dew Point Humidity Pressure Visibility Wind Dir Wind Speed Gust Speed Precip Events Conditions
12:15 AM 68.9 °F - 58.5 °F 69% 29.92 in 10.0 mi SE 6.9 mph - N/A   Overcast
12:35 AM 69.1 °F - 58.1 °F 68% 29.92 in 10.0 mi SE 6.9 mph - N/A   Overcast
12:55 AM 68.9 °F - 57.7 °F 68% 29.92 in 10.0 mi SE 8.1 mph - N/A   Overcast
1:15 AM 68.4 °F - 58.1 °F 70% 29.92 in 10.0 mi SE 6.9 mph - N/A   Overcast
1:35 AM 68.0 °F - 57.7 °F 70% 29.92 in 10.0 mi SE 6.9 mph - N/A   Overcast
1:55 AM 67.6 °F - 57.7 °F 71% 29.91 in 10.0 mi SE 5.8 mph - N/A   Scattered Clouds
2:15 AM 67.1 °F - 58.1 °F 73% 29.90 in 10.0 mi SE 8.1 mph - N/A   Mostly Cloudy
2:35 AM 67.6 °F - 57.9 °F 71% 29.89 in 10.0 mi SE 8.1 mph - N/A   Overcast
2:55 AM 67.6 °F - 57.7 °F 71% 29.89 in 10.0 mi SE 8.1 mph - N/A   Scattered Clouds
3:15 AM 67.6 °F - 57.9 °F 71% 29.88 in 10.0 mi SE 9.2 mph - N/A   Mostly Cloudy
3:35 AM 68.2 °F - 57.7 °F 69% 29.89 in 10.0 mi SE 10.4 mph - N/A   Overcast
3:55 AM 68.2 °F - 57.7 °F 69% 29.89 in 10.0 mi SE 9.2 mph - N/A   Overcast
4:15 AM 68.0 °F - 57.7 °F 70% 29.88 in 10.0 mi SE 10.4 mph - N/A   Overcast
4:35 AM 68.0 °F - 57.6 °F 69% 29.88 in 10.0 mi SE 10.4 mph - N/A   Overcast
4:55 AM 67.3 °F - 57.2 °F 70% 29.89 in 10.0 mi SE 10.4 mph - N/A   Scattered Clouds
5:15 AM 66.7 °F - 57.2 °F 71% 29.89 in 10.0 mi SE 10.4 mph - N/A   Clear
5:35 AM 67.6 °F - 57.2 °F 69% 29.90 in 10.0 mi SSE 10.4 mph 19.6 mph N/A   Clear
5:55 AM 67.1 °F - 57.2 °F 70% 29.90 in 10.0 mi SSE 11.5 mph - N/A   Clear
6:15 AM 66.6 °F - 57.2 °F 72% 29.91 in 10.0 mi SSE 11.5 mph 16.1 mph N/A   Scattered Clouds
6:35 AM 66.4 °F - 57.2 °F 72% 29.92 in 10.0 mi SSE 10.4 mph - N/A   Clear
6:55 AM 66.2 °F - 57.6 °F 74% 29.92 in 10.0 mi SSE 12.7 mph - N/A   Clear
7:15 AM 66.7 °F - 57.7 °F 73% 29.93 in 10.0 mi SSE 11.5 mph - N/A   Clear
7:35 AM 67.1 °F - 58.3 °F 73% 29.93 in 10.0 mi SSE 12.7 mph - N/A   Clear
7:55 AM 68.0 °F - 59.0 °F 73% 29.94 in 10.0 mi SSE 13.8 mph - N/A   Clear
8:15 AM 69.3 °F - 59.7 °F 72% 29.94 in 10.0 mi South 15.0 mph 20.7 mph N/A   Clear
8:35 AM 70.9 °F - 60.3 °F 69% 29.94 in 10.0 mi South 16.1 mph 27.6 mph N/A   Clear
8:55 AM 71.6 °F - 61.0 °F 69% 29.94 in 10.0 mi South 19.6 mph 23.0 mph N/A   Scattered Clouds
9:15 AM 72.5 °F - 61.5 °F 68% 29.94 in 10.0 mi South 17.3 mph 23.0 mph N/A   Scattered Clouds
9:35 AM 72.3 °F - 61.5 °F 69% 29.94 in 10.0 mi South 18.4 mph - N/A   Scattered Clouds
9:55 AM 72.7 °F - 61.9 °F 69% 29.95 in 10.0 mi South 19.6 mph 26.5 mph N/A   Scattered Clouds
10:15 AM 74.3 °F - 62.6 °F 67% 29.95 in 10.0 mi South 20.7 mph 27.6 mph N/A   Scattered Clouds
10:35 AM 75.2 °F - 61.7 °F 63% 29.95 in 10.0 mi South 21.9 mph 32.2 mph N/A   Mostly Cloudy
10:55 AM 75.9 °F - 61.3 °F 60% 29.94 in 10.0 mi SSW 25.3 mph 28.8 mph N/A   Scattered Clouds
11:15 AM 75.4 °F - 61.5 °F 62% 29.94 in 10.0 mi South 17.3 mph 27.6 mph N/A   Scattered Clouds
11:35 AM 76.3 °F - 61.7 °F 60% 29.94 in 10.0 mi SSW 20.7 mph 31.1 mph N/A   Mostly Cloudy
11:55 AM 75.6 °F - 61.7 °F 62% 29.94 in 10.0 mi South 23.0 mph 33.4 mph N/A   Overcast
12:15 PM 75.6 °F - 61.5 °F 62% 29.93 in 10.0 mi SSW 23.0 mph 32.2 mph N/A   Overcast
12:35 PM 77.4 °F - 62.6 °F 60% 29.92 in 10.0 mi SSW 21.9 mph 29.9 mph N/A   Mostly Cloudy
12:55 PM 77.2 °F - 62.4 °F 60% 29.92 in 10.0 mi South 20.7 mph 28.8 mph N/A   Scattered Clouds
1:15 PM 77.7 °F - 63.0 °F 60% 29.91 in 10.0 mi South 19.6 mph 26.5 mph N/A   Scattered Clouds
1:35 PM 77.4 °F - 62.4 °F 60% 29.91 in 10.0 mi SSW 17.3 mph 23.0 mph N/A   Mostly Cloudy
1:55 PM 78.1 °F - 63.1 °F 60% 29.90 in 10.0 mi SSW 19.6 mph 32.2 mph N/A   Mostly Cloudy
2:15 PM 77.4 °F - 62.8 °F 61% 29.90 in 10.0 mi SW 16.1 mph 26.5 mph N/A   Mostly Cloudy
2:35 PM 77.9 °F - 62.6 °F 59% 29.90 in 10.0 mi SSW 15.0 mph 23.0 mph N/A   Scattered Clouds
2:55 PM 78.8 °F - 63.1 °F 59% 29.90 in 10.0 mi SSW 13.8 mph 20.7 mph N/A   Scattered Clouds
3:15 PM 79.2 °F - 63.9 °F 59% 29.89 in 10.0 mi SSW 11.5 mph - N/A   Scattered Clouds
3:35 PM 79.3 °F - 63.7 °F 59% 29.88 in 10.0 mi SSW 9.2 mph 20.7 mph N/A   Scattered Clouds
3:55 PM 80.2 °F 81.5 °F 62.6 °F 55% 29.87 in 10.0 mi SSW 16.1 mph 23.0 mph N/A   Scattered Clouds
4:15 PM 80.6 °F 81.8 °F 62.8 °F 54% 29.87 in 10.0 mi SSW 13.8 mph 19.6 mph N/A   Clear
4:35 PM 80.1 °F 81.4 °F 62.8 °F 55% 29.86 in 10.0 mi SSW 12.7 mph 17.3 mph N/A   Clear
4:55 PM 80.6 °F 81.6 °F 61.7 °F 52% 29.85 in 10.0 mi South 16.1 mph 20.7 mph N/A   Clear
5:15 PM 80.6 °F 81.6 °F 61.5 °F 52% 29.86 in 10.0 mi South 16.1 mph 21.9 mph N/A   Scattered Clouds
5:35 PM 81.1 °F 82.0 °F 61.7 °F 51% 29.86 in 10.0 mi South 12.7 mph 19.6 mph N/A   Scattered Clouds
5:55 PM 80.1 °F 81.1 °F 61.2 °F 52% 29.86 in 10.0 mi South 19.6 mph - N/A   Scattered Clouds
6:15 PM 79.7 °F - 61.7 °F 54% 29.87 in 10.0 mi South 13.8 mph 23.0 mph N/A   Scattered Clouds
6:35 PM 79.0 °F - 62.4 °F 57% 29.86 in 10.0 mi South 13.8 mph - N/A   Scattered Clouds
6:55 PM 77.9 °F - 62.6 °F 59% 29.86 in 10.0 mi South 10.4 mph 18.4 mph N/A   Scattered Clouds
7:15 PM 76.8 °F - 62.4 °F 61% 29.86 in 10.0 mi South 11.5 mph 16.1 mph N/A   Clear
7:35 PM 76.8 °F - 62.2 °F 61% 29.85 in 10.0 mi SSE 13.8 mph 19.6 mph N/A   Clear
7:55 PM 75.7 °F - 62.6 °F 64% 29.86 in 10.0 mi SSE 11.5 mph - N/A   Clear
8:15 PM 74.7 °F - 62.8 °F 66% 29.87 in 10.0 mi SSE 10.4 mph - N/A   Clear
8:35 PM 74.8 °F - 62.8 °F 66% 29.87 in 10.0 mi SSE 10.4 mph - N/A   Clear
8:55 PM 74.7 °F - 63.1 °F 67% 29.88 in 10.0 mi SSE 10.4 mph - N/A   Clear
9:15 PM 74.8 °F - 63.5 °F 68% 29.89 in 10.0 mi SSE 10.4 mph 18.4 mph N/A   Clear
9:35 PM 75.2 °F - 64.4 °F 69% 29.90 in 10.0 mi SSE 11.5 mph - N/A   Clear
9:55 PM 73.4 °F - 63.5 °F 71% 29.90 in 10.0 mi SSE 8.1 mph - N/A   Clear
10:15 PM 73.4 °F - 63.7 °F 71% 29.90 in 10.0 mi SSE 10.4 mph - N/A   Clear
10:35 PM 72.7 °F - 63.7 °F 73% 29.89 in 10.0 mi SSE 9.2 mph - N/A   Clear
10:55 PM 72.0 °F - 63.5 °F 75% 29.88 in 10.0 mi SE 9.2 mph - N/A   Clear
11:15 PM 71.6 °F - 63.7 °F 76% 29.87 in 10.0 mi SE 9.2 mph - N/A   Clear
11:35 PM 71.1 °F - 63.5 °F 77% 29.85 in 10.0 mi SE 9.2 mph - N/A   Clear
11:55 PM 70.9 °F - 63.5 °F 77% 29.85 in 10.0 mi SE 8.1 mph - N/A   Clear